Location: *
(45.5667°S, 177.5167°W)
Time: 23:16:16
(UTC+00:00)

Cosmos 2360 Rocket - Pass Details

Date: 29 May 2022
Orbit: 832 x 846 km, 71.0° (Epoch: 24 June)

Event Time Altitude Azimuth Distance (km) Brightness Sun altitude
Rises 06:45:28 0° 203° (SSW) 3,422 5.6 -25.2°
Reaches altitude 10° 06:48:03 10° 196° (SSW) 2,480 4.7 -25.7°
Enters shadow 06:51:25 32° 173° (S) 1,420 3.2 -26.3°
